RH
80 66 69 72 70 63 63 40 30 30 39 59 53 28 23 29 55 56 64 76 91 100 94 100 99 99 98 100 100 100 98 99 96 99 100 100 100 100 100 100 100 92 91
76 73 83 74 65 64 71 47 34 36 42 61 55 26 23 27 52 57 59 66 77 100 99 99 100 98 100 100 99 100 100 100 99 99 100 100 99 100 100 98 99 100 99
82 89 90 81 73 81 76 50 43 47 49 60 56 27 25 26 48 53 59 68 76 82 92 98 99 98 96 100 99 100 100 100 100 100 100 99 100 100 100 100 92 92 91
90 89 86 86 79 98 77 96 95 73 54 60 55 26 27 27 38 54 54 56 68 75 77 83 88 96 100 100 99 100 100 100 100 100 99 100 100 100 100 100 98 96 100
100 100 100 99 99 99 98 69 100 71 66 62 59 27 30 30 31 47 46 39 47 60 68 79 96 92 90 86 86 82 83 93 97 94 84 96 94 95 99 100 99 100 99
99 100 99 79 81 82 87 99 98 73 69 69 83 30 29 29 37 44 44 44 46 46 48 52 57 59 62 63 66 68 70 69 75 72 74 70 83 83 100 100 99 100 100
100 100 100 99 100 100 99 94 100 83 70 78 79 78 29 33 42 48 52 52 49 46 47 50 49 50 53 55 57 59 58 61 58 61 71 87 75 84 92 98 100 100 100
100 100 100 100 99 99 99 100 87 92 93 93 80 83 78 35 47 56 60 62 54 52 52 52 51 53 56 60 63 68 70 71 75 83 88 92 94 98 100 100 99 100 99
99 100 100 99 100 100 100 98 99 91 95 100 100 99 99 60 58 72 78 78 82 68 65 57 53 55 59 80 79 87 78 87 95 100 100 99 98 100 100 90 99 100 98
94 97 100 100 100 100 100 100 100 100 100 100 100 99 100 76 88 75 73 70 78 77 78 80 81 80 68 84 97 99 100 98 99 99 100 95 98 99 97 98 100 96 96
96 96 96 94 96 98 98 100 99 98 100 100 100 99 100 97 99 100 100 86 89 85 86 79 72 95 100 100 100 99 99 100 99 100 99 98 90 100 99 96 84 93 73
62 89 94 94 91 92 95 98 94 96 98 97 98 99 99 99 99 99 99 99 97 99 99 99 100 100 100 100 100 100 100 98 86 93 100 98 94 93 74 47 37 35 35
38 39 37 34 54 86 95 95 95 96 97 95 96 96 96 96 97 97 98 99 99 99 99 97 99 98 99 99 95 85 99 100 88 73 50 41 35 33 32 32 32 32 33
37 36 36 37 41 49 73 83 83 90 94 96 96 97 90 94 96 96 97 96 96 91 89 94 74 58 58 50 43 42 42 42 41 40 38 36 34 32 33 33 34 38 43
36 38 39 38 41 42 41 50 65 78 99 95 94 90 90 95 96 95 95 96 88 86 72 65 49 50 44 42 36 34 36 30 36 50 44 40 41 39 42 46 49 51 56
44 40 40 40 37 38 39 40 41 44 52 54 71 86 91 94 96 95 90 93 86 64 69 78 74 57 49 35 37 47 48 51 50 51 54 53 54 52 52 53 54 54 55
52 50 50 51 51 51 52 50 48 51 55 55 57 60 62 73 58 55 51 48 46 45 46 47 49 55 54 52 54 60 61 57 57 60 63 58 59 61 59 60 59 58 59
58 61 60 56 54 56 58 63 65 68 69 68 68 68 70 74 75 68 64 60 61 63 69 73 71 66 67 68 70 71 69 70 69 69 68 66 64 65 64 62 57 48 36
53 58 64 70 72 71 73 75 76 77 77 77 80 85 86 87 84 82 78 78 78 80 78 81 82 81 82 81 79 79 78 77 76 73 70 66 59 49 40 35 31 23 15
34 44 52 60 70 76 77 81 85 88 88 89 90 94 95 96 97 97 97 97 96 95 92 89 88 86 84 85 85 83 79 74 64 55 48 39 32 26 22 16 10 7 6
27 41 49 56 64 74 79 84 92 93 94 96 98 99 100 100 100 100 99 97 97 97 97 96 93 90 87 81 70 55 47 39 36 33 32 23 14 9 8 7 6 6 7
35 40 54 61 69 72 81 85 87 93 97 97 97 96 97 99 97 97 97 97 97 98 97 93 87 78 61 52 47 47 44 33 23 19 16 11 9 9 8 8 7 7 8
76 75 70 70 82 91 92 90 90 94 96 98 99 100 98 100 100 100 100 99 98 95 88 83 74 59 48 45 38 33 26 25 20 16 12 9 9 8 8 8 9 9 10
82 88 92 92 86 85 92 98 98 97 96 96 95 93 88 80 77 75 72 68 64 69 73 70 66 49 40 34 29 20 18 14 12 11 10 10 10 11 11 11 11 10 10
60 66 75 85 94 98 96 94 96 99 100 100 100 100 100 100 100 96 95 89 78 71 64 55 51 31 32 23 16 12 11 11 11 11 12 13 12 11 11 11 11 11 11
31 31 30 31 41 56 71 84 92 94 94 94 93 92 88 86 77 74 71 56 43 33 28 25 17 15 14 13 13 13 14 15 14 14 13 12 12 12 12 13 14 15 16
Wind_Speed
34 34 35 38 41 36 35 38 35 31 35 27 25 21 20 19 17 17 17 20 24 27 27 30 23 32 29 30 35 33 31 33 31 28 28 29 27 29 27 31 25 22 22
25 33 37 40 39 34 34 37 34 33 34 28 24 20 20 19 17 16 17 17 23 24 28 27 30 26 32 34 29 32 31 30 32 30 33 27 21 26 22 25 28 26 22
30 31 35 38 32 33 33 34 32 34 32 30 24 21 20 20 17 17 18 19 22 25 29 27 31 31 28 28 30 31 36 36 34 32 36 33 32 27 25 25 24 24 27
30 35 36 35 34 33 33 35 34 36 35 31 24 22 21 21 18 17 19 21 20 20 21 21 20 23 24 26 28 31 32 33 32 33 32 36 31 28 31 29 29 27 27
26 28 33 35 35 33 35 36 38 36 34 31 28 24 23 22 20 20 20 20 19 20 20 20 22 22 23 21 20 21 25 28 30 29 26 28 27 27 31 30 31 26 28
23 24 23 30 30 29 29 37 37 36 31 30 31 28 26 25 23 21 21 22 22 21 19 20 20 21 20 20 19 19 18 19 20 22 22 22 21 22 25 28 30 32 35
17 17 23 28 23 38 34 35 33 32 28 34 38 35 31 29 26 26 26 26 25 24 24 24 24 23 23 23 24 24 23 23 24 22 21 23 23 22 23 23 25 27 31
19 19 21 27 27 29 35 37 33 31 28 33 35 41 39 34 30 30 30 29 28 27 27 28 27 27 26 26 26 26 26 26 24 23 21 24 25 26 28 30 28 31 31
4 19 22 25 27 33 36 38 35 40 39 38 42 45 44 39 31 30 30 30 30 30 31 31 30 29 29 30 29 31 28 26 21 23 24 28 29 29 32 30 33 33 35
12 19 6 23 26 31 31 36 36 41 39 41 43 41 43 38 32 32 33 37 29 34 35 35 35 35 33 32 29 29 29 26 31 31 33 28 33 34 30 31 32 38 39
16 14 15 8 12 14 7 25 25 18 37 41 39 40 40 37 38 36 39 46 49 40 38 38 36 31 30 31 32 33 35 41 38 39 39 32 33 33 35 36 36 38 40
15 17 18 16 13 14 16 10 8 7 4 6 14 22 29 36 41 43 39 38 39 40 38 40 42 38 40 37 32 36 39 29 25 29 33 29 35 31 35 34 34 34 33
12 12 11 13 16 16 14 12 8 8 8 8 5 7 7 5 2 6 14 26 24 21 28 18 18 20 23 24 24 23 27 30 30 31 29 31 32 31 31 31 31 31 31
13 12 10 9 9 8 7 7 11 12 8 8 8 6 9 9 6 6 5 5 3 6 9 15 13 17 21 22 23 23 25 25 26 27 27 27 28 29 30 30 30 30 29
12 12 13 12 10 10 9 9 8 8 12 10 9 8 10 12 11 8 7 10 10 11 12 15 16 19 21 22 22 24 24 26 26 26 27 27 27 28 28 28 29 29 28
12 13 13 12 13 12 11 11 11 10 10 10 13 15 18 20 19 17 17 17 17 16 19 22 24 26 26 26 23 23 23 24 24 25 26 25 25 25 27 28 28 28 28
15 15 15 16 15 13 13 13 12 12 12 13 12 12 11 12 12 13 14 16 17 16 17 18 18 19 19 20 21 22 22 22 23 23 23 23 23 23 24 25 26 27 27
19 17 17 17 18 18 16 15 15 14 14 14 14 14 14 14 14 14 14 15 15 15 16 16 17 18 19 19 20 20 20 20 20 22 22 22 23 23 24 24 25 25 25
20 22 22 20 19 19 19 18 18 18 18 18 17 16 15 15 15 15 15 15 15 16 16 16 17 18 18 19 19 19 19 19 21 22 23 22 22 22 22 23 23 24 24
21 20 21 22 22 22 21 20 20 20 20 20 19 18 18 17 17 16 16 16 15 16 17 18 19 19 19 19 19 20 20 19 20 21 22 21 21 22 23 23 22 23 23
24 22 21 22 21 21 21 20 19 20 21 21 20 19 18 18 18 18 18 18 18 17 18 19 19 18 18 19 17 19 19 19 19 20 21 21 21 22 22 22 23 22 22
20 22 23 22 21 22 22 22 20 18 19 19 20 19 19 19 19 19 19 19 19 18 18 19 18 18 17 18 19 19 19 19 20 21 22 21 22 22 22 22 22 22 21
19 17 20 22 21 20 21 21 21 20 20 19 18 19 19 18 18 18 18 19 18 18 18 18 18 17 18 19 19 19 20 21 21 22 22 22 22 22 22 21 21 22 22
19 19 17 18 19 22 20 21 21 20 20 19 19 17 17 16 16 16 16 17 17 17 18 18 18 18 18 20 20 20 20 20 21 21 21 20 21 20 21 21 22 22 22
19 18 17 17 17 17 18 20 20 19 18 18 18 18 17 16 16 17 17 16 16 17 17 18 18 18 19 19 19 19 19 19 19 19 19 20 21 21 21 22 21 23 23
19 19 18 17 17 17 17 16 16 17 17 18 18 17 16 16 15 16 17 17 17 18 18 19 18 18 19 19 19 18 18 19 19 20 20 21 21 21 21 20 20 21 21
Wind_Direction
242 236 238 244 250 254 248 243 242 238 232 234 250 264 274 279 263 254 243 237 230 235 225 231 227 230 234 239 243 236 233 242 246 251 258 265 271 258 256 244 251 244 242
218 228 233 239 246 250 241 241 240 239 229 231 246 259 268 272 257 253 243 236 231 231 232 234 235 239 237 239 248 248 241 248 254 258 256 253 254 261 252 253 246 248 253
222 217 229 236 243 241 243 240 239 240 229 232 242 252 262 266 252 250 243 229 231 235 237 237 235 248 239 233 244 245 243 249 246 262 252 259 258 256 256 253 246 251 259
233 234 235 239 241 236 241 238 232 236 228 233 241 247 253 259 254 244 246 241 233 225 231 230 223 229 230 235 241 241 245 249 247 248 253 251 255 250 251 242 245 251 254
234 242 233 227 228 233 239 242 231 235 233 237 243 242 247 248 248 243 239 237 229 223 223 221 222 227 228 230 230 230 232 233 232 243 248 246 244 244 241 241 245 248 256
245 233 224 234 228 228 226 225 228 229 238 246 248 243 242 245 241 238 235 229 224 221 219 217 217 217 217 218 219 224 224 221 227 234 237 239 238 242 234 238 248 257 263
237 221 214 205 219 224 223 224 229 238 248 254 251 253 247 241 236 233 232 230 227 225 221 220 221 221 222 225 229 232 235 238 241 245 252 257 256 255 258 253 258 261 263
210 219 219 207 220 219 214 218 230 242 255 247 248 248 256 246 236 234 234 234 233 232 233 233 231 231 233 235 237 241 243 243 249 255 260 268 266 269 267 268 271 272 273
69 204 206 217 219 218 226 228 231 239 249 252 246 247 241 248 236 235 237 240 242 242 242 244 244 245 245 244 246 248 249 252 255 262 260 259 265 270 266 268 272 271 271
11 40 160 224 223 217 212 206 217 221 250 226 233 233 236 232 223 230 235 235 243 248 244 245 247 246 246 249 252 250 249 251 252 254 256 256 260 269 268 265 269 271 273
33 33 34 25 46 40 66 227 228 220 218 221 223 219 235 222 223 235 239 232 233 250 247 248 254 252 244 250 250 253 251 251 253 256 259 265 267 266 276 273 277 271 276
19 19 25 35 41 27 16 22 27 32 78 191 200 213 220 228 229 226 225 228 232 239 240 244 241 239 242 241 242 250 249 263 271 267 263 263 271 267 268 270 270 271 273
6 7 3 1 358 1 15 18 7 358 330 331 343 323 330 331 276 212 195 212 213 213 225 239 242 254 260 263 268 261 257 262 264 264 266 266 266 269 271 273 275 277 277
344 346 349 351 342 335 316 322 336 355 346 295 285 288 299 305 293 284 315 306 293 268 260 249 257 249 253 254 257 263 262 260 261 260 262 266 270 273 275 276 277 278 278
333 332 330 327 323 319 320 312 300 275 267 275 296 320 333 314 290 287 292 273 257 274 271 268 260 251 253 252 253 257 261 263 265 267 268 270 270 271 273 275 278 280 281
323 320 317 313 311 312 308 306 303 296 286 276 263 255 251 254 259 260 265 264 268 267 264 263 259 257 256 262 266 264 262 263 264 266 265 267 270 275 277 279 280 282 283
312 308 307 307 305 303 302 297 296 294 293 294 291 286 279 273 270 265 258 255 259 258 259 262 264 265 266 265 265 263 262 263 266 267 271 277 279 280 281 281 283 284 285
306 303 299 296 295 295 292 291 289 287 284 280 279 280 281 281 280 277 275 275 272 271 266 264 262 262 262 263 264 268 273 277 278 279 280 280 280 281 281 282 283 284 285
298 299 300 298 293 289 289 288 285 284 283 282 280 278 276 273 272 274 276 275 275 273 272 272 271 271 272 273 275 276 276 277 278 278 279 281 282 282 282 284 285 285 285
301 299 294 293 294 292 288 285 284 282 279 278 278 279 279 280 280 278 275 273 272 272 273 272 272 272 273 274 275 277 277 276 276 278 280 282 282 282 282 282 283 283 285
296 297 295 294 292 291 290 287 284 281 280 280 280 278 278 278 279 278 277 276 276 275 275 276 278 279 280 281 279 277 278 279 280 279 281 281 281 281 283 284 285 286 285
287 289 292 291 291 289 289 288 286 283 282 281 280 280 279 279 279 281 282 282 283 282 281 281 282 282 279 277 277 278 280 279 279 280 281 282 282 282 282 283 285 285 285
298 290 283 285 288 288 287 286 287 288 286 283 280 280 279 278 277 276 277 276 276 276 276 277 277 275 275 275 275 278 280 280 281 280 281 281 281 282 283 283 283 285 286
305 302 295 287 282 284 285 288 288 286 284 284 284 284 284 283 278 276 275 275 276 276 276 275 275 276 276 277 279 278 278 278 279 279 280 280 282 284 285 286 287 288 288
306 304 303 300 295 290 287 287 287 286 284 283 282 282 281 279 279 280 277 275 276 276 276 278 278 276 276 276 277 279 280 278 277 279 281 282 284 285 288 290 290 290 291
306 305 302 296 293 291 290 287 285 284 288 289 288 287 284 280 281 280 280 281 278 276 279 279 278 277 279 280 279 280 279 281 284 285 286 286 288 288 287 287 287 289 293